Location: Unspecified
(50.0830°N, 0.0000°E)
Time: 01:24:54
(UTC+00:00)

N. Korean satellite - Pass Details

Date: 24 November 2019
Orbit: 456 x 506 km, 97.2° (Epoch: 05 December)

Event Time Altitude Azimuth Distance (km) Brightness Sun altitude
Rises 17:45:39 0° 196° (SSW) 2,579 10.7 -15.5°
Reaches altitude 10° 17:48:00 10° 211° (SSW) 1,708 10.0 -15.9°
Maximum altitude 17:51:02 24° 267° (W) 1,088 9.2 -16.3°
Drops below altitude 10° 17:54:06 10° 322° (NW) 1,731 9.7 -16.8°
Sets 17:56:31 0° 337° (NNW) 2,624 10.4 -17.2°
